Mojave, CA

6:17 PM PST on November 14, 2019 (GMT -0800)
Mojave

Weather History for KMHV - June, 2019

Change the Weather History Date:

Thursday, June 13, 2019

  Actual Average Record
Temperature  
Mean Temperature 83 °F -  
Max Temperature 93 °F 88 °F 106 °F (1966)
Min Temperature 73 °F 60 °F 41 °F (1970)
Cooling Degree Days 18    
Growing Degree Days 33 (Base 50)    
Moisture  
Dew Point 44 °F    
Average Humidity 26    
Maximum Humidity 39    
Minimum Humidity 15    
Precipitation  
Precipitation 0.00 in - - ()
Sea Level Pressure  
Sea Level Pressure 29.88 in    
Wind  
Wind Speed 17 mph (West)    
Max Wind Speed 43 mph    
Max Gust Speed 53 mph    
Visibility 10 miles    
Events      
Averages and records for this station are not official NWS values.
T = Trace of Precipitation, MM = Missing Value Source: NWS Daily Summary

Daily Weather History Graph

Daily Weather History Graph

Search for Another Location

Airport or City:

Astronomy

Jun. 13, 2019 Rise Set
Actual Time 5:37 AM PDT 8:07 PM PDT
Civil Twilight 5:08 AM PDT 8:37 PM PDT
Nautical Twilight 4:31 AM PDT 9:13 PM PDT
Astronomical Twilight 3:51 AM PDT 9:54 PM PDT
Moon 4:36 PM PDT (6/13) 3:15 AM PDT (6/13)
Length of Visible Light 15h 29m
Length of Day
14h 29m
Waxing Gibbous, 86% of the Moon is Illuminated
Jun 13
Waxing Gibbous
Jun 17
Full
Jun 25
Last Quarter
Jul 2
New
Jul 9
First Quarter

Hourly Weather History & Observations

Time (PDT) Temp. Dew Point Humidity Pressure Visibility Wind Dir Wind Speed Gust Speed Precip Events Conditions
12:00 AM 78.8 °F 46.4 °F 32% 29.95 in 10.0 mi WSW 13.8 mph - N/A   Clear
12:20 AM 78.8 °F 44.6 °F 30% 29.94 in 10.0 mi SW 15.0 mph - N/A   Partly Cloudy
12:40 AM 78.8 °F 44.6 °F 30% 29.93 in 10.0 mi SW 13.8 mph - N/A   Clear
1:00 AM 78.8 °F 44.6 °F 30% 29.93 in 10.0 mi SW 11.5 mph 17.3 mph N/A   Partly Cloudy
1:20 AM 77.0 °F 44.6 °F 32% 29.93 in 10.0 mi WSW 12.7 mph - N/A   Clear
1:40 AM 78.8 °F 44.6 °F 30% 29.92 in 10.0 mi West 10.4 mph 20.7 mph N/A   Clear
2:00 AM 78.8 °F 44.6 °F 30% 29.91 in 10.0 mi WNW 23.0 mph - N/A   Clear
2:20 AM 78.8 °F 44.6 °F 30% 29.90 in 10.0 mi WNW 18.4 mph 25.3 mph N/A   Clear
2:40 AM 77.0 °F 44.6 °F 32% 29.90 in 10.0 mi West 16.1 mph - N/A   Clear
3:00 AM 77.0 °F 44.6 °F 32% 29.90 in 10.0 mi West 16.1 mph 21.9 mph N/A   Clear
3:20 AM 77.0 °F 44.6 °F 32% 29.90 in 10.0 mi WNW 16.1 mph - N/A   Clear
3:40 AM 77.0 °F 42.8 °F 29% 29.90 in 10.0 mi West 9.2 mph 16.1 mph N/A   Partly Cloudy
4:00 AM 75.2 °F 42.8 °F 31% 29.90 in 10.0 mi SSW 5.8 mph - N/A   Clear
4:20 AM 75.2 °F 41.0 °F 29% 29.90 in 10.0 mi Calm Calm - N/A   Clear
4:40 AM 75.2 °F 42.8 °F 31% 29.90 in 10.0 mi Calm Calm - N/A   Partly Cloudy
5:00 AM 75.2 °F 41.0 °F 29% 29.90 in 10.0 mi WSW 4.6 mph - N/A   Scattered Clouds
5:20 AM 75.2 °F 41.0 °F 29% 29.91 in 10.0 mi West 10.4 mph - N/A   Partly Cloudy
5:40 AM 73.4 °F 41.0 °F 31% 29.91 in 10.0 mi SW 11.5 mph - N/A   Clear
6:00 AM 73.4 °F 41.0 °F 31% 29.91 in 10.0 mi WSW 8.1 mph 13.8 mph N/A   Clear
6:20 AM 75.2 °F 41.0 °F 29% 29.91 in 10.0 mi SW 8.1 mph 15.0 mph N/A   Clear
6:40 AM 75.2 °F 42.8 °F 31% 29.92 in 10.0 mi SW 9.2 mph - N/A   Clear
7:00 AM 77.0 °F 44.6 °F 32% 29.92 in 10.0 mi West 12.7 mph 19.6 mph N/A   Clear
7:20 AM 78.8 °F 44.6 °F 30% 29.92 in 10.0 mi West 13.8 mph 20.7 mph N/A   Clear
7:40 AM 80.6 °F 44.6 °F 28% 29.92 in 10.0 mi West 18.4 mph - N/A   Clear
8:00 AM 80.6 °F 44.6 °F 28% 29.92 in 10.0 mi WNW 13.8 mph 20.7 mph N/A   Clear
8:20 AM 82.4 °F 44.6 °F 26% 29.93 in 10.0 mi West 17.3 mph - N/A   Clear
8:40 AM 82.4 °F 44.6 °F 26% 29.93 in 10.0 mi West 19.6 mph - N/A   Clear
9:00 AM 84.2 °F 46.4 °F 27% 29.93 in 10.0 mi West 17.3 mph 24.2 mph N/A   Clear
9:20 AM 84.2 °F 46.4 °F 27% 29.93 in 10.0 mi WSW 16.1 mph 21.9 mph N/A   Clear
9:40 AM 84.2 °F 46.4 °F 27% 29.93 in 10.0 mi West 18.4 mph - N/A   Clear
10:00 AM 86.0 °F 44.6 °F 23% 29.92 in 10.0 mi West 19.6 mph - N/A   Clear
10:20 AM 86.0 °F 44.6 °F 23% 29.92 in 10.0 mi WSW 18.4 mph - N/A   Clear
10:40 AM 87.8 °F 44.6 °F 22% 29.92 in 10.0 mi West 18.4 mph - N/A   Clear
11:00 AM 87.8 °F 44.6 °F 22% 29.92 in 10.0 mi West 19.6 mph - N/A   Clear
11:20 AM 89.6 °F 46.4 °F 22% 29.91 in 10.0 mi WNW 17.3 mph 23.0 mph N/A   Clear
11:40 AM 89.6 °F 44.6 °F 21% 29.91 in 10.0 mi West 23.0 mph 28.8 mph N/A   Clear
12:00 PM 89.6 °F 42.8 °F 20% 29.91 in 10.0 mi West 23.0 mph 29.9 mph N/A   Clear
12:20 PM 89.6 °F 44.6 °F 21% 29.91 in 10.0 mi West 24.2 mph 31.1 mph N/A   Clear
12:40 PM 89.6 °F 44.6 °F 21% 29.91 in 10.0 mi West 21.9 mph 31.1 mph N/A   Clear
1:00 PM 91.4 °F 44.6 °F 20% 29.90 in 10.0 mi West 18.4 mph 26.5 mph N/A   Clear
1:20 PM 91.4 °F 44.6 °F 20% 29.90 in 10.0 mi West 19.6 mph 28.8 mph N/A   Clear
1:40 PM 91.4 °F 42.8 °F 18% 29.89 in 10.0 mi West 20.7 mph 27.6 mph N/A   Clear
2:00 PM 93.2 °F 42.8 °F 17% 29.89 in 10.0 mi West 21.9 mph 29.9 mph N/A   Clear
2:20 PM 93.2 °F 42.8 °F 17% 29.89 in 10.0 mi West 17.3 mph 28.8 mph N/A   Clear
2:40 PM 93.2 °F 42.8 °F 17% 29.88 in 10.0 mi West 20.7 mph 28.8 mph N/A   Clear
3:00 PM 93.2 °F 41.0 °F 16% 29.87 in 10.0 mi West 23.0 mph 29.9 mph N/A   Clear
3:20 PM 93.2 °F 39.2 °F 15% 29.87 in 10.0 mi WNW 28.8 mph 34.5 mph N/A   Clear
3:40 PM 93.2 °F 41.0 °F 16% 29.87 in 10.0 mi West 23.0 mph 29.9 mph N/A   Clear
4:00 PM 91.4 °F 42.8 °F 18% 29.86 in 10.0 mi West 20.7 mph 32.2 mph N/A   Clear
4:20 PM 91.4 °F 42.8 °F 18% 29.86 in 10.0 mi WNW 25.3 mph 31.1 mph N/A   Clear
4:40 PM 89.6 °F 42.8 °F 20% 29.85 in 10.0 mi West 17.3 mph 38.0 mph N/A   Clear
5:00 PM 89.6 °F 42.8 °F 20% 29.85 in 10.0 mi West 23.0 mph 32.2 mph N/A   Clear
5:20 PM 89.6 °F 44.6 °F 21% 29.85 in 10.0 mi West 21.9 mph 31.1 mph N/A   Clear
5:40 PM 87.8 °F 44.6 °F 22% 29.84 in 10.0 mi West 20.7 mph 35.7 mph N/A   Clear
6:00 PM 87.8 °F 46.4 °F 24% 29.83 in 10.0 mi West 20.7 mph 38.0 mph N/A   Clear
6:20 PM 87.8 °F 46.4 °F 24% 29.82 in 10.0 mi WNW 27.6 mph 39.1 mph N/A   Clear
6:40 PM 86.0 °F 44.6 °F 23% 29.82 in 10.0 mi WNW 29.9 mph 39.1 mph N/A   Clear
7:00 PM 86.0 °F 46.4 °F 25% 29.82 in 10.0 mi WNW 25.3 mph 39.1 mph N/A   Clear
7:20 PM 84.2 °F 46.4 °F 27% 29.84 in 10.0 mi West 20.7 mph 28.8 mph N/A   Clear
7:40 PM 82.4 °F 46.4 °F 28% 29.83 in 10.0 mi WNW 17.3 mph 28.8 mph N/A   Clear
8:00 PM 82.4 °F 46.4 °F 28% 29.82 in 10.0 mi WNW 24.2 mph 34.5 mph N/A   Clear
8:20 PM 82.4 °F 46.4 °F 28% 29.82 in 10.0 mi WNW 21.9 mph 34.5 mph N/A   Clear
8:40 PM 80.6 °F 46.4 °F 30% 29.82 in 10.0 mi WNW 25.3 mph 40.3 mph N/A   Clear
9:00 PM 80.6 °F 46.4 °F 30% 29.82 in 10.0 mi WNW 21.9 mph 42.6 mph N/A   Clear
9:20 PM 80.6 °F 46.4 °F 30% 29.82 in 10.0 mi NW 27.6 mph 38.0 mph N/A   Clear
9:40 PM 80.6 °F 44.6 °F 28% 29.83 in 10.0 mi WNW 32.2 mph 42.6 mph N/A   Clear
10:00 PM 80.6 °F 44.6 °F 28% 29.83 in 10.0 mi NW 31.1 mph 42.6 mph N/A   Clear
10:20 PM 80.6 °F 44.6 °F 28% 29.83 in 10.0 mi NW 24.2 mph 49.5 mph N/A   Clear
10:40 PM 80.6 °F 44.6 °F 28% 29.83 in 10.0 mi NW 28.8 mph 41.4 mph N/A   Clear
11:00 PM 80.6 °F 46.4 °F 30% 29.83 in 10.0 mi NNW 42.6 mph 52.9 mph N/A   Clear
11:20 PM 78.8 °F 48.2 °F 34% 29.84 in 10.0 mi NNW 19.6 mph 43.7 mph N/A   Clear
11:40 PM 78.8 °F 51.8 °F 39% 29.84 in 10.0 mi WNW 28.8 mph 42.6 mph N/A   Clear